This demonstration page uses our WeatherBlox Daily Observations layout. Learn more.

39.29038, -76.61219

Hourly Observations for December 26, 2017

Temp ( °F °C ) Dew Point ( °F °C ) Humidity (%) Winds ( mph kmh ) Pressure ( in mb ) Visibility ( mi km ) Precip ( " mm )
12:54 am 00:54 undefined 31 -0.6 6 -14.4 35 35 undefined N/A 30.33 1027 N/A 0 0
1:54 am 01:54 undefined 30 -1.1 6 -14.4 36 36 undefined N/A 30.33 1027 N/A 0 0
2:54 am 02:54 undefined 30 -1.1 2 -16.7 30 30 undefined N/A 30.36 1028 N/A 0 0
3:54 am 03:54 undefined 30 -1.1 3 -16.1 31 31 undefined N/A 30.36 1028 N/A 0 0
4:54 am 04:54 undefined 30 -1.1 4 -15.6 33 33 undefined N/A 30.39 1029 N/A 0 0
5:54 am 05:54 undefined 29 -1.7 6 -14.4 38 38 undefined N/A 30.42 1030 N/A 0 0
6:54 am 06:54 undefined 29 -1.7 6 -14.4 38 38 undefined N/A 30.42 1030 N/A 0 0
7:54 am 07:54 undefined 29 -1.7 7 -13.9 39 39 undefined N/A 30.45 1031 N/A 0 0
8:54 am 08:54 undefined 30 -1.1 7 -13.9 38 38 undefined N/A 30.45 1031 N/A 0 0
9:54 am 09:54 undefined 31 -0.6 5 -15 33 33 undefined N/A 30.48 1032 N/A 0 0
10:54 am 10:54 undefined 33 0.6 5 -15 30 30 undefined N/A 30.48 1032 N/A 0 0
11:54 am 11:54 undefined 33 0.6 5 -15 30 30 undefined N/A 30.45 1031 N/A 0 0
12:54 pm 12:54 undefined 35 1.7 8 -13.3 32 32 undefined N/A 30.45 1031 N/A 0 0
1:54 pm 13:54 undefined 37 2.8 9 -12.8 31 31 undefined N/A 30.42 1030 N/A 0 0
2:54 pm 14:54 undefined 36 2.2 9 -12.8 32 32 undefined N/A 30.39 1029 N/A 0 0
3:54 pm 15:54 undefined 36 2.2 10 -12.2 34 34 undefined N/A 30.39 1029 N/A 0 0
4:54 pm 16:54 undefined 35 1.7 10 -12.2 35 35 undefined N/A 30.42 1030 N/A 0 0
5:54 pm 17:54 undefined 34 1.1 11 -11.7 38 38 undefined N/A 30.45 1031 N/A 0 0
6:54 pm 18:54 undefined 34 1.1 11 -11.7 38 38 undefined N/A 30.45 1031 N/A 0 0
7:54 pm 19:54 undefined 34 1.1 11 -11.7 38 38 undefined N/A 30.45 1031 N/A 0 0
8:54 pm 20:54 undefined 34 1.1 11 -11.7 38 38 undefined N/A 30.45 1031 N/A 0 0
9:54 pm 21:54 undefined 33 0.6 11 -11.7 40 40 undefined N/A 30.45 1031 N/A 0 0
10:54 pm 22:54 undefined 33 0.6 11 -11.7 40 40 undefined N/A 30.45 1031 N/A 0 0
11:54 pm 23:54 undefined 33 0.6 11 -11.7 40 40 undefined N/A 30.45 1031 N/A 0 0

Powered by AerisWeather